Wind_Speed
28 29 30 30 31 31 31 32 32 32 33 34 34 34 35 35 35 36 36 37 37 38 39 38 38 38 37 36 35 34 33 34 34 33 32 31 31 32 32 32 32 32 32 32 32 33 32 32 32 29 27 28 31 33 33 33 33 32 31 31 31 32 31 31 31 30 30 30 29 28 28 27 27 27
30 31 32 32 33 33 34 35 35 35 36 36 36 37 37 37 37 38 38 38 39 40 40 40 39 40 41 39 37 36 35 35 35 35 35 34 34 34 33 33 34 34 34 35 35 35 36 35 34 33 31 28 29 31 30 30 30 30 31 32 32 31 30 29 30 30 31 30 29 29 29 29 29 28
32 33 33 34 34 35 35 36 36 37 37 37 37 38 38 38 38 39 38 38 38 40 41 40 40 41 41 41 40 39 38 37 36 36 37 37 37 36 36 36 36 36 37 37 37 37 38 38 36 36 35 32 31 31 29 28 27 28 30 32 31 30 29 29 28 29 30 30 30 30 30 30 30 29
34 34 34 34 34 34 34 35 35 36 36 36 36 37 37 38 38 38 38 37 37 39 40 40 40 41 42 42 42 41 41 40 39 38 38 38 38 39 39 39 38 38 39 39 39 39 39 40 39 39 38 36 34 33 31 29 27 27 29 30 30 30 29 28 28 28 28 28 29 29 29 30 30 29
34 34 34 34 34 34 34 34 34 34 35 35 35 36 36 36 37 37 37 36 36 38 39 40 40 41 42 42 42 42 41 41 41 40 40 39 39 40 41 41 41 41 40 40 40 40 40 41 41 41 40 40 38 36 34 32 30 29 29 28 29 30 29 27 27 27 27 27 28 28 28 28 28 29
33 33 33 33 33 34 33 34 34 34 34 35 35 35 35 36 36 36 36 36 36 37 38 39 39 40 41 41 41 42 41 41 42 41 41 40 40 40 41 42 43 43 42 42 42 41 42 42 42 41 41 41 40 39 37 35 33 32 31 29 28 29 28 28 27 26 26 26 26 26 27 27 28 28
32 32 32 32 33 33 33 34 34 35 35 35 35 36 36 36 36 37 37 36 36 37 38 39 40 40 40 41 41 41 41 41 42 42 42 41 41 41 41 42 43 44 44 43 43 42 42 43 43 42 42 42 41 40 39 38 36 35 33 32 30 29 28 28 27 27 27 26 25 23 24 25 26 27
31 31 32 32 32 33 33 33 34 34 35 35 35 36 36 36 36 37 37 37 37 37 37 38 39 40 40 40 41 42 42 41 42 42 42 42 42 42 42 43 43 44 44 43 44 44 43 43 44 44 43 42 42 41 40 40 38 37 36 35 33 32 30 29 29 28 27 26 25 24 23 23 24 26
31 31 32 32 33 33 33 33 34 34 34 34 35 35 36 36 37 37 37 38 38 38 38 38 38 39 39 40 41 42 43 43 42 42 43 43 44 44 44 44 44 44 44 44 44 46 45 44 44 44 44 43 42 41 40 40 40 39 38 37 36 34 33 31 31 30 29 27 27 26 25 24 24 25
31 32 32 33 33 33 34 34 35 35 35 35 36 36 37 38 38 39 39 39 40 40 40 40 40 40 40 40 41 42 43 43 44 44 44 44 44 45 45 45 45 45 45 45 45 46 46 46 45 44 44 44 43 42 41 40 40 41 40 39 38 37 35 34 33 32 31 30 29 28 27 27 26 26
32 33 33 34 34 35 35 36 36 37 38 39 39 39 39 40 41 41 41 42 42 43 43 43 43 43 43 43 43 43 44 44 45 45 46 46 46 46 46 46 47 47 46 46 46 46 47 47 47 46 44 44 44 43 42 41 40 41 41 41 40 39 38 36 35 35 34 33 32 31 30 29 29 29
34 34 35 35 36 37 38 38 39 39 40 40 41 41 41 41 41 41 41 42 42 42 43 43 44 44 45 45 45 45 46 46 47 47 48 48 48 48 48 48 48 49 49 48 48 48 47 48 48 48 46 45 44 43 43 42 41 41 41 41 41 41 40 39 38 37 36 35 34 33 32 32 31 31
36 36 37 37 38 38 39 39 39 39 39 39 40 40 40 40 40 40 40 41 41 41 42 43 43 44 44 45 45 45 46 47 47 48 49 50 50 50 51 50 50 51 51 51 50 49 49 49 49 49 48 47 46 45 44 43 42 42 42 42 42 42 41 41 40 39 38 38 37 36 35 34 33 33
37 37 38 38 38 38 38 38 38 38 38 39 39 39 40 40 41 41 41 42 42 42 43 43 44 44 45 45 45 46 46 46 47 47 48 49 50 51 51 52 52 53 53 53 53 52 52 51 50 50 50 50 49 48 47 45 43 42 42 42 42 42 41 41 41 41 40 39 39 38 37 36 35 34
37 38 38 38 38 38 38 38 38 38 38 39 40 40 41 42 43 44 44 44 44 44 44 45 45 46 46 46 47 47 47 48 48 48 48 49 50 50 51 51 52 53 54 54 54 54 55 54 53 52 51 51 51 51 50 47 45 43 43 43 43 42 41 41 41 41 41 41 40 40 39 38 37 36
37 37 37 37 37 38 38 39 39 40 40 41 42 42 43 43 44 44 44 44 45 45 44 44 44 44 45 45 45 46 46 47 47 48 49 50 50 51 52 52 52 53 53 53 53 54 55 55 54 54 54 53 53 53 52 50 48 46 44 44 43 43 42 42 41 41 41 41 41 40 40 40 39 38
37 37 37 38 38 39 40 41 41 42 42 42 43 43 43 43 43 44 44 44 44 45 45 45 44 44 44 44 45 45 45 45 46 47 48 48 49 50 51 51 52 53 53 54 54 54 54 55 54 54 54 54 54 54 54 53 51 49 47 45 44 44 43 43 42 42 41 41 41 41 41 41 41 40
38 39 39 40 40 41 42 42 43 43 43 43 43 43 44 44 44 45 46 46 46 47 47 47 46 46 47 47 47 47 47 47 47 47 48 48 48 49 49 49 50 51 52 53 54 54 55 56 56 55 54 54 55 55 55 54 52 51 49 47 45 45 44 44 43 43 42 42 42 42 42 42 42 42
41 42 42 42 42 42 43 43 44 44 45 45 45 45 46 46 47 47 47 48 48 48 49 48 48 48 48 49 49 50 49 49 49 49 49 49 49 49 49 49 49 50 51 52 53 53 53 55 56 55 55 55 55 54 54 53 53 52 52 50 48 46 45 44 44 43 43 42 42 42 42 42 42 42
43 43 43 44 44 44 44 45 46 46 47 47 47 46 46 46 45 45 45 46 46 46 45 44 44 44 45 46 46 47 47 48 48 48 48 48 48 48 48 48 48 49 49 51 51 51 52 54 55 55 55 56 56 55 54 53 52 52 52 51 50 48 46 45 45 44 44 43 42 42 42 42 42 42
43 44 45 46 46 47 47 47 46 46 46 45 43 42 41 39 38 37 38 40 40 40 40 39 39 39 39 40 40 40 41 42 43 43 43 43 43 44 43 43 43 43 44 46 47 48 50 53 55 55 55 55 55 55 55 54 53 52 51 51 50 49 48 47 46 45 44 44 43 43 42 42 41 41
45 46 46 46 47 46 45 44 43 42 40 38 35 34 33 33 33 34 35 35 36 37 38 39 40 40 39 38 38 37 37 38 38 38 38 38 39 40 39 38 39 40 41 43 44 44 46 49 52 53 54 54 54 54 54 54 54 53 52 51 50 50 49 48 47 46 45 45 44 44 43 42 41 41
44 44 42 41 40 39 39 39 38 36 34 32 31 31 31 32 32 32 33 33 33 35 36 37 39 41 40 39 38 37 37 37 37 37 36 36 37 37 37 38 38 38 39 41 42 43 44 46 48 50 50 52 53 54 54 54 54 53 53 52 51 50 49 49 48 47 46 45 45 45 44 43 42 41
39 37 35 33 33 33 33 34 34 33 32 31 31 32 32 31 30 29 29 29 30 31 33 35 37 39 40 39 37 36 35 35 36 36 35 35 36 36 36 37 37 37 36 38 40 41 41 42 43 45 46 47 49 51 52 53 53 53 52 52 51 51 50 49 48 47 47 46 46 45 45 44 44 43
33 31 30 30 31 31 30 31 31 30 30 30 30 30 30 29 28 27 27 27 27 28 30 31 32 33 34 34 33 32 32 32 33 34 34 34 35 35 34 34 34 34 34 36 39 41 41 40 40 41 41 42 44 46 49 50 52 52 52 51 51 51 50 49 49 48 48 47 46 46 45 45 44 44
30 29 29 28 28 27 26 27 27 27 27 27 27 27 26 26 26 26 26 25 25 26 26 26 25 25 25 26 26 26 26 27 28 29 31 32 32 32 32 32 33 33 34 37 39 41 41 40 40 40 40 39 40 42 44 46 49 51 51 51 50 50 49 48 48 48 48 48 47 46 46 45 45 44
29 28 28 26 25 24 24 24 24 23 23 22 23 23 23 24 23 23 23 23 23 23 24 24 23 21 21 21 22 22 23 24 25 26 28 29 29 30 30 31 31 31 33 35 37 39 39 39 40 40 40 39 39 40 40 42 44 47 50 50 50 49 48 47 47 47 48 49 48 47 46 46 45 45
27 27 25 23 23 23 22 22 21 20 20 21 21 21 21 21 21 21 21 21 22 22 22 22 21 21 21 21 22 23 23 24 24 25 26 27 27 27 28 28 29 30 31 33 35 37 38 38 38 39 39 39 39 38 38 38 40 43 46 48 48 48 47 46 46 45 46 47 47 47 47 47 46 45
28 28 25 23 23 23 22 21 21 21 22 21 20 20 19 19 20 20 20 20 20 20 20 21 21 20 20 21 21 22 23 24 24 24 25 25 26 26 26 26 28 29 29 31 33 34 35 35 35 36 37 37 37 37 36 35 36 38 41 44 45 46 46 46 45 44 44 45 46 46 46 47 46 47
28 29 27 25 24 23 22 22 22 22 22 20 20 20 20 20 20 21 21 21 21 21 21 22 22 21 21 21 21 22 22 22 23 23 24 25 25 24 24 24 25 26 25 26 27 29 30 31 31 33 34 35 35 35 34 33 33 35 37 39 42 44 45 45 44 44 43 43 43 44 44 45 46 46
28 30 29 27 25 24 23 23 23 23 23 22 21 21 20 21 22 22 22 22 22 22 23 23 22 21 21 21 21 22 22 22 22 22 23 24 24 24 23 23 24 23 23 23 24 24 25 27 28 29 31 32 33 33 32 31 31 32 34 36 38 40 42 43 43 43 42 41 41 41 42 43 44 45
29 30 29 26 25 24 24 24 24 24 24 23 22 22 22 23 24 24 23 23 23 23 24 23 22 21 21 21 21 21 21 20 21 21 22 23 23 23 23 23 23 23 22 21 21 22 22 23 24 25 27 29 30 30 29 28 28 29 31 33 34 36 38 39 41 41 40 39 39 39 39 40 42 43
28 28 27 25 23 23 23 23 23 23 23 23 23 23 24 24 25 25 24 23 22 22 22 21 21 21 21 21 21 21 20 20 19 19 20 21 21 22 22 22 22 22 21 20 20 20 20 20 21 22 23 25 27 28 28 26 26 27 30 31 31 32 34 36 37 38 37 37 36 36 37 38 40 41
27 26 25 24 22 22 23 23 22 22 22 23 23 24 24 25 25 25 25 24 23 21 21 20 21 21 21 22 23 24 24 24 22 21 20 20 20 20 21 21 20 20 19 18 18 18 19 19 19 19 20 22 24 25 26 25 25 26 28 29 30 30 31 33 33 33 32 32 33 33 35 36 38 39
25 25 24 22 22 22 22 22 22 22 23 24 24 25 26 26 26 25 24 23 22 21 21 21 21 21 22 23 24 24 25 25 24 23 22 21 20 20 20 19 19 19 18 17 17 17 17 17 18 19 19 19 20 21 22 23 24 24 26 28 29 30 31 30 29 28 28 29 30 31 33 35 35 37
24 24 23 22 22 22 22 23 23 23 24 24 25 26 27 28 27 26 23 22 22 22 22 22 23 23 23 24 24 25 25 25 24 24 23 22 21 20 19 18 18 19 18 17 17 17 15 15 16 18 19 18 18 18 18 20 21 23 24 26 28 30 30 30 29 28 28 29 29 30 32 33 33 35
24 24 24 24 23 23 23 23 23 23 23 24 25 27 27 27 26 24 23 22 22 22 22 23 24 25 25 26 26 26 27 28 26 24 22 21 21 21 20 19 18 18 18 18 17 17 16 15 16 17 18 18 17 17 18 18 19 21 22 24 26 28 29 30 30 30 30 30 31 31 31 31 30 33
25 24 24 24 24 24 24 24 24 24 24 25 26 27 27 26 24 22 22 22 23 23 23 24 25 26 26 27 28 29 29 29 28 25 22 21 20 20 21 20 19 18 18 19 19 18 16 15 16 16 17 17 16 17 18 19 18 19 20 21 23 25 27 29 30 30 30 31 31 30 29 28 29 30
25 25 25 24 24 25 25 25 24 24 25 25 26 26 25 23 21 21 21 22 23 23 24 25 26 27 27 28 29 29 29 28 26 25 23 22 21 21 21 21 20 19 19 21 22 20 17 16 16 16 16 16 17 18 17 16 16 17 17 18 20 22 25 27 28 28 29 30 30 29 28 28 28 29
26 26 26 26 26 25 24 23 23 22 23 23 24 23 21 20 19 20 21 22 22 23 25 26 27 28 29 30 30 28 26 24 23 22 22 22 22 23 23 23 22 22 21 21 21 20 19 18 18 18 17 17 17 17 17 16 17 17 17 18 19 20 23 25 26 27 29 29 29 29 29 29 29 29
25 25 26 26 25 25 24 23 21 21 21 22 21 21 20 19 20 20 21 22 23 24 25 26 27 28 29 29 27 25 23 22 20 20 20 20 21 22 23 24 24 23 23 22 21 20 19 17 16 16 18 18 18 18 18 18 18 18 18 19 19 19 21 23 25 26 27 28 27 27 27 27 28 29
24 25 25 25 25 25 24 23 21 21 21 21 20 20 20 21 21 22 23 24 24 25 26 27 29 30 28 26 24 23 21 20 19 19 19 19 19 21 22 23 24 23 23 24 23 21 20 18 16 15 15 16 18 19 19 17 16 17 17 18 19 19 20 22 23 24 25 25 25 24 24 25 27 28
25 25 25 25 25 25 25 24 22 22 21 21 21 20 21 21 22 23 23 24 24 25 27 30 30 29 25 23 22 22 21 20 20 19 19 19 20 20 21 22 23 23 23 25 25 24 22 21 18 15 14 14 15 17 17 16 15 16 16 17 18 19 20 21 21 22 22 22 22 22 22 22 24 25
24 24 25 25 26 27 27 25 24 23 22 22 21 21 22 22 22 22 22 23 24 26 28 28 27 24 22 21 21 21 21 21 20 19 19 19 20 19 18 19 21 21 21 22 24 24 23 22 20 18 16 14 15 16 17 15 14 14 15 15 16 17 18 18 19 19 18 18 19 19 20 21 21 22
24 24 25 26 27 27 27 26 25 24 23 23 23 23 23 23 22 22 22 23 24 26 26 25 22 21 21 21 20 21 22 21 20 18 17 18 18 14 10 11 14 16 16 16 16 16 16 18 19 19 17 15 14 14 14 13 13 13 14 14 14 15 16 16 16 16 16 16 16 17 18 19 20 20
Wind_Direction
278 279 279 279 279 279 279 279 278 278 278 278 278 279 279 280 280 281 283 284 284 284 284 284 284 283 282 280 279 279 278 277 278 276 274 273 271 270 270 270 270 269 269 269 268 268 267 267 269 270 267 266 268 269 270 270 268 268 269 266 262 261 261 260 257 255 255 254 253 254 253 253 253 253
278 278 279 279 279 279 279 279 279 278 278 279 279 279 279 279 278 279 279 280 281 281 281 281 281 281 281 280 279 277 276 275 275 275 275 273 271 270 270 269 268 267 267 267 267 267 267 267 268 268 266 264 266 268 270 271 271 271 269 266 264 264 262 260 258 256 255 254 253 254 254 253 253 253
280 280 280 279 279 279 279 279 279 279 278 278 278 278 278 277 277 277 277 277 277 277 278 278 278 278 278 279 278 277 276 275 274 273 273 273 273 272 271 269 268 267 267 266 267 267 268 268 268 268 267 265 264 266 269 271 272 274 273 272 272 270 265 261 259 256 253 253 253 253 254 254 253 252
281 281 280 279 279 278 278 278 277 277 277 276 276 275 275 275 275 275 275 274 274 274 274 275 275 276 276 276 276 276 276 276 275 273 272 272 273 273 272 271 269 268 267 267 267 267 267 268 269 269 269 268 266 265 266 268 269 271 273 276 277 277 274 268 263 259 255 253 253 254 255 255 255 255
281 281 280 280 279 278 277 277 276 275 275 274 274 274 274 274 274 274 274 273 273 273 273 273 273 274 274 275 275 275 275 275 275 274 273 272 271 270 271 272 271 269 268 268 267 267 267 267 268 269 269 269 268 267 266 265 265 266 267 270 273 276 277 275 271 266 261 256 253 254 256 257 257 257
282 282 282 281 281 281 280 279 278 277 277 276 276 276 275 275 275 275 275 274 273 273 273 273 272 272 272 273 273 273 274 274 274 273 272 272 270 269 269 270 270 270 269 268 268 267 267 267 267 267 267 267 268 268 267 265 264 264 264 264 265 269 272 274 274 271 267 263 258 257 257 258 258 258
284 284 283 282 281 280 280 280 279 279 279 279 279 279 278 278 277 277 276 275 274 273 272 272 272 271 271 271 271 270 270 270 271 272 271 271 270 269 268 268 268 268 268 269 269 268 267 267 267 266 265 265 265 266 266 266 264 263 262 262 261 262 264 267 269 269 268 267 265 263 263 261 259 259
286 285 284 282 281 280 280 280 280 280 281 281 281 281 281 280 279 278 278 277 275 274 273 272 272 272 271 271 271 271 270 269 269 269 270 270 269 268 267 266 266 266 266 267 268 268 266 265 265 265 265 264 264 263 264 265 265 264 262 261 261 259 259 260 262 264 265 265 264 264 265 265 263 260
289 288 288 287 285 284 283 283 282 281 281 281 281 281 281 281 280 279 279 278 278 276 274 273 272 272 271 271 271 271 271 271 270 269 268 268 268 268 267 266 265 266 265 265 265 266 267 266 264 264 265 265 264 263 262 262 264 264 263 261 260 260 258 258 258 260 260 260 260 260 261 262 262 260
293 292 291 290 289 288 287 286 285 284 284 282 281 281 280 280 279 279 278 277 277 277 276 274 273 271 270 270 269 269 270 270 270 269 268 268 267 267 267 266 265 265 265 264 264 264 265 266 265 265 264 264 264 263 262 260 260 262 262 261 260 260 259 258 257 257 257 256 256 256 257 257 258 258
294 292 291 291 290 289 288 287 286 286 285 284 283 282 280 279 278 278 277 277 276 275 275 274 273 271 270 268 268 267 267 268 268 268 268 267 267 267 266 266 266 265 264 264 263 263 263 264 265 265 264 263 263 262 261 260 258 258 259 260 260 259 259 257 256 256 255 255 254 254 254 255 256 257
292 291 290 289 288 287 287 286 285 284 283 283 283 282 281 280 279 279 278 277 277 276 275 274 273 273 271 270 268 267 266 266 266 266 266 267 267 266 266 265 265 265 264 263 263 262 262 262 263 264 264 263 262 261 260 259 258 257 257 257 258 258 258 257 256 255 255 254 254 253 253 254 255 257
291 290 289 289 288 287 287 286 285 285 284 284 283 283 283 282 281 281 279 278 278 277 276 276 275 274 273 272 270 269 268 267 266 266 265 265 265 265 265 265 265 264 264 264 263 263 262 261 260 261 262 262 262 261 259 257 256 256 256 255 255 255 256 256 256 256 255 255 254 254 253 253 254 257
292 291 291 291 290 290 289 289 288 288 287 287 286 285 285 284 283 281 280 278 277 276 275 274 273 272 271 270 270 269 268 267 266 265 265 264 264 264 264 264 264 263 263 263 263 263 262 261 260 259 259 260 260 260 259 257 256 255 254 254 254 254 254 254 255 255 255 255 254 254 253 252 252 254
294 293 293 292 292 292 291 290 290 289 288 287 286 285 284 283 282 280 279 278 276 275 273 272 271 270 270 269 269 268 267 266 265 264 264 263 263 262 262 262 262 262 262 262 262 262 261 260 260 259 259 258 258 259 259 259 257 254 253 253 253 253 252 252 252 252 253 253 253 253 253 252 252 252
295 295 294 294 293 293 292 291 290 289 287 286 285 284 283 282 281 280 279 279 278 277 275 274 273 272 271 270 269 268 267 267 266 265 263 262 261 261 261 260 260 260 261 261 261 261 261 260 260 259 258 258 257 257 258 258 257 256 254 252 252 252 251 251 250 250 250 250 251 251 251 252 252 251
296 296 296 295 294 293 292 291 290 289 289 288 287 287 286 285 284 282 281 281 280 280 279 278 277 276 274 273 271 270 268 267 266 265 264 263 262 262 261 260 259 259 259 260 259 260 260 261 260 259 258 258 257 256 256 256 256 256 255 253 252 250 250 250 250 249 248 248 248 249 249 249 250 251
298 298 297 296 296 295 294 293 292 292 291 290 290 289 288 287 286 285 285 284 283 283 282 281 280 279 278 276 274 272 270 268 267 266 265 265 264 263 262 262 261 260 259 259 259 259 259 259 259 259 259 258 257 257 256 255 255 255 255 254 252 251 249 249 249 249 248 247 247 247 247 247 248 249
301 300 300 299 298 298 298 297 296 295 294 293 292 291 290 289 288 287 287 286 285 284 283 283 281 280 278 276 274 273 272 270 269 268 267 266 266 265 265 264 263 262 261 260 259 258 258 259 259 258 258 257 257 257 256 255 254 254 254 253 252 251 250 249 248 247 247 247 246 246 246 246 246 247
303 303 302 302 301 300 300 299 298 297 296 295 294 292 292 291 291 290 290 289 289 288 287 285 283 280 278 276 275 274 273 272 271 269 269 268 267 267 266 265 264 264 264 263 262 260 259 259 258 257 257 257 256 256 256 255 254 253 253 253 252 251 250 249 247 246 246 246 246 245 245 244 244 245
305 306 305 305 303 302 301 300 299 297 296 295 295 294 294 294 293 292 290 290 291 290 288 286 284 281 279 278 277 276 275 273 272 271 270 269 268 267 266 266 266 266 265 264 264 263 261 260 259 257 256 255 255 255 255 255 253 252 252 251 251 251 250 249 248 247 245 245 244 244 244 243 243 243
308 308 307 306 304 303 302 301 300 299 298 298 298 297 296 295 294 291 288 287 287 285 284 283 282 280 278 276 275 274 274 273 273 272 270 269 268 268 268 267 266 266 266 266 265 264 262 260 259 257 255 254 254 253 254 254 253 252 250 250 249 249 249 249 248 247 246 245 244 243 243 243 243 242
309 309 307 305 304 303 303 302 302 302 302 302 301 299 297 295 293 291 289 288 287 286 285 284 282 280 278 276 274 273 272 271 272 272 270 270 270 270 269 268 267 266 267 267 267 265 263 262 261 259 257 254 253 252 252 252 252 252 250 249 248 247 247 247 247 246 246 245 244 243 243 243 243 242
309 308 306 305 304 303 302 301 302 302 303 303 302 301 299 298 296 295 294 294 293 292 291 288 285 282 280 278 277 275 273 271 271 271 271 271 271 271 270 269 268 267 267 267 267 267 265 263 262 261 258 256 254 252 251 251 251 251 250 249 248 246 245 245 245 245 245 244 244 244 243 243 242 242
311 309 308 307 306 304 302 301 302 303 304 304 304 303 303 302 301 301 300 299 298 297 296 295 292 286 282 281 279 278 275 273 272 272 272 272 273 273 273 272 271 271 271 270 269 268 266 264 262 261 259 256 254 252 251 250 250 250 250 249 249 247 245 243 243 243 244 244 243 243 243 242 242 242
315 314 312 311 311 310 308 306 306 306 307 307 308 307 306 305 304 304 303 303 302 300 300 300 299 295 289 287 284 282 279 277 274 273 274 274 275 276 275 274 273 274 273 272 271 270 268 265 262 259 258 256 254 252 250 249 248 248 248 248 248 248 246 244 242 242 242 243 243 243 242 242 242 242
321 320 318 317 317 315 312 310 308 308 310 312 312 311 309 307 308 309 310 310 309 307 305 305 304 302 298 294 291 288 285 282 279 277 276 275 275 275 275 275 275 275 274 273 273 273 271 267 262 258 256 255 254 253 251 249 247 246 246 246 246 247 246 245 243 241 241 241 242 242 242 242 242 242
326 326 324 320 318 316 314 313 312 315 318 318 316 314 314 315 317 318 318 317 316 315 313 310 308 305 301 296 292 289 286 283 281 279 278 277 276 275 275 274 274 273 272 271 271 272 272 271 265 259 255 254 254 253 252 249 247 246 245 245 245 245 245 245 244 242 241 240 240 240 241 241 241 242
328 328 327 325 324 322 321 321 323 325 325 323 321 321 323 324 324 322 321 320 319 318 318 316 313 309 305 300 296 292 289 287 285 283 282 282 280 279 277 275 273 271 270 270 270 271 272 272 268 262 256 254 253 253 252 250 247 245 245 244 244 244 244 244 243 242 241 240 239 239 240 240 240 240
324 326 329 329 328 327 327 327 328 329 328 328 328 327 327 326 323 320 318 316 316 317 318 317 314 310 307 303 299 296 293 291 289 287 285 283 281 280 278 275 274 273 273 272 273 273 272 272 270 265 260 256 254 253 251 248 245 243 243 243 243 243 243 243 242 241 241 240 239 239 239 239 239 241
319 322 327 329 329 330 331 330 330 330 332 332 330 326 323 321 319 318 316 314 313 315 318 319 317 314 310 306 302 297 293 290 289 287 285 283 282 280 278 277 276 276 277 276 276 275 274 272 269 266 261 258 256 255 252 249 245 242 241 241 242 242 243 243 242 242 241 240 240 239 239 238 239 241
318 320 325 328 330 330 329 328 328 329 330 329 324 319 317 316 316 317 317 315 314 315 318 320 321 319 317 314 311 306 301 295 291 288 287 286 285 283 281 279 278 279 279 277 276 275 274 272 270 267 263 260 258 257 255 252 248 244 241 241 241 242 243 243 243 242 241 241 240 240 240 240 240 241
322 323 326 329 329 327 327 326 326 325 324 321 318 316 315 315 316 317 317 316 314 314 315 317 319 320 320 318 314 311 309 305 300 295 292 291 289 287 283 280 279 279 279 277 276 275 274 272 270 268 265 262 260 258 257 254 250 245 242 242 241 241 242 243 242 242 241 240 241 241 242 241 241 241
329 329 329 328 326 325 327 326 323 321 319 318 316 316 315 315 316 315 314 313 312 310 309 309 311 314 315 314 310 307 304 303 302 298 296 294 293 292 287 280 276 277 278 277 274 273 273 273 272 269 265 262 260 259 257 254 249 244 241 240 240 239 239 241 241 240 238 238 239 240 241 242 241 241
333 332 330 326 323 322 323 323 320 319 318 317 317 316 315 315 315 314 311 310 308 307 305 304 305 309 312 313 311 308 306 304 302 300 298 295 293 291 290 284 276 272 273 273 270 266 268 272 273 271 267 264 261 260 258 254 249 244 240 238 238 237 237 237 238 237 235 235 235 238 240 241 241 240
335 335 333 329 324 321 319 317 317 317 317 318 318 318 318 317 315 312 310 307 307 307 306 306 308 312 314 314 314 313 312 310 307 301 298 295 291 288 286 283 276 269 265 265 263 260 260 266 270 269 266 262 260 259 259 255 251 246 241 238 236 236 236 236 236 235 234 234 234 235 238 240 240 240
340 337 333 330 327 324 321 319 318 318 319 320 320 320 319 317 314 311 309 308 308 309 308 309 311 312 313 314 315 315 316 315 312 306 298 293 290 286 281 278 274 269 263 259 256 254 255 257 261 263 262 259 256 256 258 258 255 249 243 238 236 235 235 234 233 232 233 234 235 235 238 239 240 242
346 341 336 331 328 325 323 321 320 318 318 318 319 319 318 316 314 312 312 312 313 313 312 312 312 313 313 315 315 316 315 313 311 306 297 288 283 280 276 272 268 264 260 256 253 250 252 256 257 258 258 255 251 252 255 257 256 252 245 239 236 234 233 233 232 231 232 234 236 238 240 241 242 244
350 346 342 338 334 329 325 321 319 318 318 319 320 320 319 317 315 315 316 316 317 317 316 315 315 315 316 316 315 315 313 310 306 301 295 286 277 272 270 268 265 259 255 254 253 249 248 255 258 257 257 255 253 252 253 253 253 252 247 241 236 232 231 232 233 232 232 234 237 240 242 243 244 245
350 348 346 344 341 337 333 329 326 325 325 324 324 323 322 320 319 319 320 319 319 319 319 318 318 319 319 318 317 316 314 310 305 301 296 289 280 272 265 262 260 256 251 251 251 246 243 251 258 256 256 258 256 253 253 252 250 249 246 241 237 231 229 230 232 233 234 236 238 239 241 242 243 245
350 350 349 347 345 343 340 337 334 332 330 329 329 328 326 325 324 323 323 322 322 321 320 319 321 322 322 321 321 321 319 316 312 307 301 294 287 279 268 260 255 252 248 247 248 242 238 246 258 258 252 251 252 252 252 250 248 246 245 242 239 234 231 231 232 234 237 239 241 241 242 242 244 244
352 352 352 351 351 349 347 344 340 337 335 335 334 332 330 329 328 327 327 326 325 325 325 325 326 327 327 327 327 326 324 321 317 312 306 299 293 285 274 262 253 247 243 242 244 245 242 244 251 251 245 244 249 252 248 243 241 243 244 242 239 236 234 234 235 237 238 241 243 245 245 245 245 244
354 354 355 357 358 358 356 352 347 343 340 338 337 335 334 334 333 331 330 330 330 331 332 331 330 330 331 331 330 328 327 323 318 314 311 307 301 291 277 262 251 244 240 239 239 243 245 243 240 238 238 244 251 250 241 235 238 243 243 241 239 237 234 234 237 238 240 241 242 243 244 245 245 244
354 355 357 1 3 3 1 358 354 349 345 342 340 340 340 339 338 336 334 334 336 336 334 332 331 333 335 334 333 332 330 326 322 320 317 315 311 300 280 259 246 240 240 240 239 240 244 242 234 231 238 248 252 247 239 235 236 238 238 239 240 238 236 236 238 239 240 240 241 240 240 242 245 245
353 356 359 3 3 2 2 1 358 354 350 347 345 343 343 342 341 338 337 338 339 338 336 335 338 340 340 339 339 337 333 329 329 328 326 324 323 314 284 250 238 236 239 242 241 241 242 236 227 229 240 248 245 236 229 227 228 230 233 237 239 237 236 236 238 238 238 238 240 241 240 240 243 244
Height
5891 5891 5890 5890 5889 5889 5888 5888 5888 5887 5887 5886 5886 5885 5885 5884 5884 5883 5882 5881 5881 5880 5879 5879 5879 5878 5878 5879 5879 5879 5879 5878 5878 5879 5879 5879 5879 5879 5879 5879 5879 5879 5879 5878 5878 5877 5876 5875 5875 5878 5880 5880 5878 5878 5878 5879 5881 5882 5883 5883 5882 5881 5883 5884 5885 5885 5886 5886 5887 5888 5889 5889 5890 5891
5888 5887 5886 5885 5885 5884 5884 5883 5883 5883 5882 5881 5881 5880 5880 5879 5879 5878 5878 5878 5876 5875 5874 5874 5874 5873 5872 5873 5874 5874 5874 5874 5874 5874 5874 5874 5874 5875 5875 5875 5875 5874 5874 5874 5873 5872 5871 5871 5872 5873 5874 5876 5875 5875 5876 5877 5877 5878 5878 5877 5878 5878 5880 5880 5881 5882 5883 5883 5884 5884 5885 5885 5886 5887
5884 5883 5882 5881 5881 5880 5880 5879 5878 5878 5877 5877 5876 5876 5875 5874 5874 5873 5873 5874 5872 5870 5869 5869 5869 5868 5867 5867 5868 5868 5868 5869 5869 5869 5869 5869 5869 5869 5870 5870 5870 5869 5869 5869 5869 5868 5867 5867 5868 5868 5869 5871 5872 5872 5873 5874 5875 5875 5874 5873 5873 5875 5876 5876 5877 5878 5879 5879 5880 5881 5881 5882 5883 5883
5879 5878 5877 5877 5876 5876 5875 5874 5873 5873 5872 5872 5871 5871 5870 5869 5869 5868 5868 5869 5868 5866 5865 5864 5864 5863 5862 5862 5862 5862 5863 5863 5864 5864 5864 5864 5864 5864 5864 5864 5864 5864 5864 5864 5864 5864 5863 5863 5863 5864 5865 5866 5868 5870 5871 5871 5871 5871 5870 5869 5870 5871 5872 5873 5874 5875 5875 5876 5876 5877 5878 5879 5879 5880
5875 5874 5873 5872 5871 5871 5870 5869 5869 5868 5867 5867 5866 5865 5865 5864 5864 5863 5863 5863 5863 5861 5860 5859 5859 5858 5857 5857 5857 5857 5857 5857 5857 5858 5858 5859 5859 5859 5858 5858 5858 5858 5859 5859 5859 5859 5858 5858 5858 5859 5860 5861 5862 5865 5867 5868 5868 5868 5867 5867 5867 5867 5868 5870 5871 5871 5872 5872 5873 5873 5874 5875 5876 5877
5870 5869 5869 5868 5867 5866 5865 5864 5863 5863 5862 5861 5861 5860 5859 5859 5858 5858 5857 5857 5857 5856 5855 5854 5853 5853 5852 5852 5851 5851 5851 5851 5851 5852 5852 5853 5853 5853 5853 5853 5852 5852 5853 5853 5853 5853 5853 5853 5853 5854 5854 5856 5857 5859 5861 5863 5864 5864 5864 5864 5864 5864 5864 5866 5867 5868 5868 5869 5869 5870 5871 5872 5873 5874
5865 5865 5864 5863 5862 5861 5860 5859 5858 5857 5856 5856 5855 5854 5854 5853 5852 5851 5851 5851 5851 5851 5850 5848 5847 5847 5847 5846 5846 5845 5846 5846 5845 5846 5846 5846 5847 5847 5848 5847 5846 5846 5847 5847 5847 5847 5847 5847 5847 5848 5849 5850 5852 5854 5855 5857 5858 5859 5860 5860 5861 5861 5861 5861 5862 5864 5865 5865 5866 5867 5868 5869 5869 5870
5861 5860 5859 5858 5857 5856 5855 5854 5853 5852 5851 5850 5849 5848 5848 5847 5846 5845 5845 5845 5845 5845 5844 5843 5842 5841 5841 5841 5840 5839 5839 5840 5840 5840 5840 5840 5840 5841 5841 5841 5841 5840 5841 5842 5841 5841 5841 5842 5841 5842 5843 5844 5846 5848 5850 5851 5852 5853 5854 5855 5856 5857 5857 5858 5858 5859 5860 5861 5862 5863 5865 5865 5866 5866
5856 5855 5854 5853 5852 5851 5850 5849 5848 5847 5846 5845 5844 5843 5842 5841 5840 5840 5839 5838 5838 5838 5838 5837 5836 5836 5835 5835 5834 5833 5833 5833 5833 5834 5834 5834 5834 5834 5835 5835 5835 5835 5835 5836 5836 5835 5835 5835 5836 5836 5837 5838 5840 5842 5844 5846 5846 5847 5848 5850 5851 5852 5853 5854 5855 5855 5856 5857 5858 5859 5860 5861 5862 5863
5851 5850 5849 5848 5847 5846 5844 5843 5842 5841 5840 5839 5838 5837 5836 5835 5834 5833 5833 5832 5831 5831 5830 5830 5830 5829 5829 5828 5828 5827 5827 5827 5827 5827 5827 5827 5827 5828 5828 5828 5829 5829 5829 5830 5830 5830 5829 5829 5830 5831 5832 5832 5834 5835 5838 5840 5841 5841 5842 5844 5845 5846 5848 5849 5850 5851 5852 5853 5854 5855 5856 5857 5858 5859
5846 5845 5844 5843 5842 5840 5839 5838 5836 5835 5834 5832 5831 5830 5829 5828 5827 5826 5826 5825 5824 5824 5823 5823 5823 5822 5822 5822 5821 5821 5820 5820 5820 5820 5820 5820 5820 5821 5821 5821 5822 5822 5823 5823 5823 5824 5824 5824 5824 5825 5826 5826 5828 5829 5831 5833 5835 5836 5836 5838 5839 5841 5842 5844 5845 5846 5848 5849 5850 5851 5853 5853 5854 5855
5841 5840 5838 5837 5836 5834 5833 5832 5830 5829 5827 5826 5824 5823 5822 5821 5820 5819 5819 5818 5817 5817 5816 5815 5815 5815 5814 5814 5814 5814 5814 5813 5813 5813 5813 5813 5813 5813 5814 5814 5815 5815 5815 5816 5816 5817 5818 5818 5818 5819 5819 5820 5821 5822 5824 5826 5828 5829 5830 5832 5833 5835 5836 5838 5839 5841 5842 5844 5845 5847 5848 5849 5850 5850
5836 5834 5833 5831 5830 5828 5827 5825 5824 5822 5821 5819 5818 5816 5815 5814 5813 5812 5812 5811 5810 5809 5809 5808 5808 5807 5807 5807 5806 5806 5806 5806 5806 5806 5806 5806 5806 5806 5806 5807 5807 5807 5807 5808 5809 5810 5811 5811 5812 5812 5813 5814 5814 5815 5817 5819 5821 5823 5824 5826 5827 5828 5830 5832 5834 5835 5836 5838 5840 5841 5843 5845 5845 5845
5829 5828 5826 5825 5823 5822 5820 5818 5817 5815 5814 5812 5811 5810 5809 5807 5806 5805 5805 5804 5803 5803 5802 5801 5801 5800 5800 5800 5799 5799 5798 5799 5799 5799 5798 5798 5799 5799 5799 5799 5799 5799 5799 5800 5801 5802 5803 5803 5804 5806 5806 5807 5807 5808 5809 5812 5815 5817 5818 5819 5821 5822 5824 5826 5827 5829 5831 5832 5834 5836 5838 5839 5841 5842
5823 5821 5820 5818 5816 5815 5813 5812 5810 5809 5808 5806 5805 5804 5802 5801 5800 5799 5798 5797 5796 5795 5795 5794 5793 5793 5793 5792 5791 5791 5790 5791 5791 5791 5791 5791 5791 5791 5791 5792 5792 5791 5791 5792 5793 5794 5794 5795 5797 5798 5799 5800 5800 5801 5802 5804 5808 5810 5812 5813 5814 5816 5818 5819 5821 5823 5824 5826 5828 5830 5832 5834 5836 5837
5817 5816 5814 5812 5811 5809 5807 5806 5804 5803 5802 5800 5799 5797 5796 5794 5793 5791 5790 5789 5788 5786 5786 5786 5785 5785 5784 5784 5783 5782 5782 5782 5782 5782 5782 5782 5783 5783 5783 5784 5784 5784 5784 5785 5785 5785 5785 5786 5788 5790 5791 5792 5793 5794 5795 5797 5800 5802 5804 5806 5808 5810 5811 5813 5814 5816 5818 5820 5822 5824 5825 5827 5829 5831
5812 5811 5809 5807 5805 5804 5802 5800 5798 5796 5795 5793 5792 5790 5788 5786 5785 5783 5781 5780 5779 5778 5777 5777 5777 5776 5775 5775 5774 5774 5774 5774 5774 5773 5773 5773 5774 5774 5775 5775 5776 5776 5776 5776 5777 5778 5778 5778 5779 5781 5782 5784 5785 5786 5787 5790 5792 5794 5797 5799 5801 5803 5805 5806 5808 5810 5812 5813 5815 5817 5819 5821 5823 5825
5807 5805 5803 5802 5800 5797 5795 5793 5791 5789 5787 5786 5784 5782 5780 5778 5776 5774 5773 5771 5770 5769 5768 5768 5768 5767 5766 5766 5765 5765 5765 5765 5765 5765 5765 5765 5765 5766 5766 5767 5768 5768 5768 5768 5769 5771 5771 5770 5771 5773 5775 5775 5776 5778 5780 5782 5785 5787 5789 5791 5794 5796 5798 5800 5801 5803 5805 5807 5809 5811 5813 5815 5817 5819
5801 5799 5797 5795 5793 5791 5788 5785 5783 5782 5780 5778 5776 5774 5772 5770 5768 5766 5764 5763 5762 5761 5760 5759 5759 5758 5757 5756 5755 5755 5755 5756 5756 5756 5756 5756 5756 5757 5758 5759 5759 5759 5760 5760 5761 5763 5764 5762 5763 5765 5767 5766 5768 5770 5772 5774 5777 5779 5781 5784 5786 5788 5791 5793 5795 5797 5799 5801 5803 5805 5806 5808 5810 5812
5795 5792 5790 5788 5786 5784 5781 5779 5776 5774 5772 5770 5768 5766 5764 5762 5760 5758 5756 5754 5753 5753 5751 5751 5750 5749 5748 5747 5747 5747 5747 5747 5747 5747 5748 5748 5748 5748 5749 5750 5750 5751 5752 5751 5752 5755 5756 5755 5754 5757 5758 5758 5760 5762 5764 5766 5769 5771 5773 5775 5778 5781 5783 5785 5788 5790 5792 5794 5796 5798 5800 5802 5804 5806
5789 5787 5784 5781 5779 5777 5774 5772 5769 5767 5764 5762 5760 5758 5757 5755 5754 5752 5750 5748 5746 5745 5744 5743 5741 5741 5740 5740 5739 5739 5739 5739 5739 5739 5740 5741 5740 5740 5741 5742 5743 5744 5744 5743 5744 5746 5747 5746 5745 5748 5749 5751 5752 5754 5755 5757 5760 5763 5765 5767 5770 5773 5776 5778 5780 5783 5785 5787 5789 5791 5793 5795 5798 5800
5784 5781 5778 5775 5772 5769 5767 5765 5762 5760 5758 5756 5755 5753 5751 5750 5748 5746 5744 5743 5741 5739 5738 5736 5734 5733 5733 5733 5733 5733 5733 5732 5732 5732 5733 5734 5733 5733 5734 5735 5736 5736 5736 5736 5736 5737 5738 5736 5736 5738 5741 5743 5745 5746 5747 5749 5751 5754 5757 5759 5762 5765 5768 5770 5773 5776 5778 5780 5782 5785 5787 5789 5791 5793
5779 5776 5773 5770 5767 5764 5761 5758 5756 5754 5752 5751 5749 5748 5746 5745 5743 5741 5739 5738 5736 5734 5732 5730 5728 5726 5726 5726 5726 5727 5727 5726 5726 5726 5727 5727 5727 5727 5728 5728 5729 5729 5729 5729 5729 5729 5730 5729 5729 5730 5732 5734 5736 5737 5739 5741 5743 5745 5748 5751 5754 5757 5760 5763 5766 5768 5771 5773 5776 5778 5780 5782 5785 5787
5775 5772 5769 5766 5763 5760 5757 5754 5752 5750 5748 5747 5745 5743 5741 5739 5738 5736 5735 5733 5731 5729 5727 5725 5723 5721 5720 5720 5720 5720 5721 5721 5720 5720 5721 5721 5721 5721 5722 5722 5722 5722 5723 5723 5722 5722 5722 5722 5722 5722 5723 5726 5728 5729 5731 5733 5735 5737 5740 5743 5746 5749 5752 5755 5758 5761 5764 5766 5769 5771 5774 5776 5778 5781
5771 5768 5765 5762 5759 5756 5754 5751 5749 5747 5745 5743 5741 5739 5736 5735 5733 5732 5730 5728 5726 5724 5722 5720 5718 5716 5714 5714 5714 5715 5715 5715 5715 5715 5715 5715 5715 5715 5716 5716 5716 5716 5717 5717 5715 5714 5714 5715 5715 5715 5716 5718 5720 5721 5723 5725 5728 5730 5732 5735 5737 5740 5744 5749 5752 5754 5757 5759 5762 5764 5767 5769 5772 5774
5766 5764 5761 5758 5755 5752 5750 5747 5745 5744 5741 5739 5737 5735 5733 5731 5729 5727 5726 5724 5722 5720 5718 5716 5714 5712 5710 5709 5709 5710 5710 5710 5710 5710 5710 5710 5710 5710 5710 5710 5710 5711 5711 5710 5708 5707 5707 5708 5708 5709 5710 5711 5712 5714 5715 5718 5720 5722 5724 5727 5730 5733 5737 5741 5744 5747 5750 5752 5755 5758 5761 5763 5766 5768
5762 5759 5756 5754 5751 5749 5747 5745 5743 5741 5739 5736 5734 5732 5730 5728 5726 5724 5722 5720 5719 5717 5715 5713 5711 5709 5708 5706 5706 5705 5705 5705 5706 5706 5706 5706 5706 5706 5705 5705 5705 5705 5705 5704 5702 5701 5701 5701 5702 5703 5704 5705 5706 5707 5709 5711 5713 5714 5717 5720 5722 5725 5730 5733 5737 5740 5743 5745 5748 5752 5754 5757 5760 5762
5759 5756 5753 5751 5749 5747 5744 5742 5740 5738 5736 5733 5731 5729 5727 5725 5723 5721 5719 5718 5716 5714 5712 5710 5709 5707 5706 5704 5703 5703 5702 5702 5702 5702 5701 5701 5701 5701 5701 5701 5700 5700 5700 5699 5697 5696 5695 5695 5696 5697 5698 5698 5699 5701 5703 5705 5707 5708 5710 5713 5716 5719 5722 5726 5729 5733 5736 5738 5742 5745 5748 5750 5753 5756
5755 5753 5750 5748 5746 5743 5741 5739 5737 5734 5733 5731 5729 5727 5725 5723 5721 5719 5717 5715 5714 5712 5710 5708 5707 5705 5704 5702 5701 5700 5699 5699 5698 5698 5697 5697 5696 5696 5696 5696 5695 5695 5695 5694 5692 5691 5691 5690 5690 5691 5692 5693 5694 5695 5697 5699 5701 5703 5705 5707 5709 5712 5715 5719 5722 5725 5728 5731 5735 5738 5741 5744 5747 5749
5752 5750 5747 5745 5742 5740 5738 5736 5734 5732 5730 5728 5726 5724 5722 5721 5719 5717 5716 5714 5712 5710 5709 5707 5705 5703 5701 5700 5698 5697 5696 5695 5695 5694 5693 5692 5692 5692 5692 5691 5691 5690 5690 5689 5688 5687 5686 5686 5686 5686 5687 5688 5690 5691 5692 5694 5696 5697 5699 5701 5703 5706 5709 5712 5715 5718 5722 5725 5728 5731 5734 5737 5740 5741
5750 5747 5745 5742 5740 5738 5736 5734 5732 5730 5728 5726 5724 5722 5721 5719 5717 5715 5714 5712 5710 5708 5706 5704 5703 5701 5699 5697 5696 5695 5693 5693 5692 5691 5690 5689 5688 5688 5688 5687 5686 5686 5686 5685 5684 5683 5682 5682 5682 5682 5683 5684 5685 5686 5687 5689 5691 5693 5694 5696 5698 5700 5703 5706 5709 5712 5716 5719 5722 5725 5728 5731 5733 5733
5747 5745 5742 5740 5737 5735 5733 5731 5730 5728 5726 5724 5723 5721 5719 5717 5715 5713 5711 5709 5707 5705 5703 5701 5700 5698 5696 5695 5693 5692 5690 5689 5689 5688 5687 5685 5684 5684 5683 5683 5682 5682 5682 5681 5680 5680 5679 5678 5678 5679 5680 5680 5681 5682 5683 5685 5687 5689 5690 5692 5694 5696 5698 5701 5704 5707 5711 5714 5717 5720 5723 5725 5727 5728
5745 5742 5740 5737 5735 5733 5731 5729 5727 5726 5724 5723 5721 5719 5717 5715 5713 5711 5709 5707 5705 5703 5701 5699 5697 5695 5694 5692 5690 5689 5688 5686 5685 5684 5683 5682 5681 5680 5679 5679 5678 5678 5678 5678 5677 5677 5676 5675 5675 5676 5676 5677 5677 5678 5680 5681 5683 5685 5686 5687 5690 5692 5694 5696 5699 5702 5706 5709 5712 5715 5718 5719 5721 5723
5742 5740 5737 5735 5733 5731 5729 5727 5725 5724 5722 5721 5719 5717 5715 5713 5711 5709 5707 5705 5703 5701 5699 5698 5696 5694 5692 5690 5688 5686 5685 5683 5682 5681 5680 5679 5678 5677 5676 5675 5675 5675 5674 5674 5674 5674 5673 5673 5672 5673 5673 5673 5674 5675 5676 5678 5679 5680 5682 5683 5686 5688 5690 5692 5694 5697 5701 5704 5707 5710 5711 5713 5715 5718
5741 5738 5736 5733 5731 5729 5727 5725 5724 5722 5720 5718 5716 5714 5712 5710 5708 5706 5704 5702 5700 5698 5697 5695 5693 5691 5689 5687 5685 5683 5681 5679 5678 5677 5676 5675 5674 5673 5673 5672 5671 5671 5671 5671 5671 5671 5670 5670 5670 5670 5670 5670 5671 5671 5672 5673 5675 5676 5678 5680 5682 5684 5686 5688 5690 5694 5697 5700 5702 5704 5705 5707 5709 5711
5739 5736 5734 5731 5729 5727 5725 5723 5721 5719 5717 5715 5713 5711 5709 5707 5705 5703 5701 5699 5697 5695 5693 5692 5690 5688 5686 5684 5682 5680 5678 5676 5674 5673 5671 5671 5670 5669 5669 5668 5668 5668 5668 5668 5668 5667 5667 5667 5667 5668 5667 5668 5668 5669 5669 5670 5671 5673 5674 5676 5678 5680 5683 5685 5688 5691 5693 5695 5697 5699 5699 5701 5704 5706
5737 5735 5732 5730 5727 5725 5723 5721 5719 5717 5715 5713 5711 5709 5707 5704 5702 5700 5698 5696 5694 5692 5690 5689 5687 5685 5682 5680 5678 5676 5674 5672 5670 5668 5667 5666 5666 5665 5665 5665 5665 5664 5664 5665 5665 5664 5664 5664 5665 5665 5665 5665 5666 5667 5666 5667 5668 5669 5671 5672 5674 5677 5679 5681 5683 5686 5688 5690 5692 5694 5695 5697 5699 5701
5736 5734 5731 5728 5726 5723 5721 5719 5717 5715 5713 5711 5709 5706 5704 5701 5699 5697 5695 5693 5691 5689 5687 5685 5683 5681 5679 5677 5675 5672 5670 5668 5665 5664 5662 5662 5661 5661 5661 5661 5661 5661 5661 5661 5662 5662 5662 5662 5662 5662 5663 5663 5663 5663 5663 5664 5665 5666 5667 5669 5671 5673 5675 5677 5678 5681 5684 5686 5688 5690 5691 5693 5695 5697
5736 5733 5730 5727 5725 5722 5720 5717 5715 5713 5711 5709 5706 5704 5701 5699 5697 5695 5693 5690 5688 5686 5684 5682 5680 5678 5676 5673 5671 5668 5666 5663 5661 5659 5658 5657 5657 5656 5656 5657 5657 5657 5658 5658 5658 5659 5660 5660 5660 5660 5661 5661 5660 5660 5660 5662 5663 5664 5665 5666 5668 5671 5672 5674 5675 5678 5681 5682 5684 5686 5687 5689 5691 5693
5735 5732 5729 5726 5724 5721 5718 5715 5713 5711 5708 5706 5704 5701 5699 5697 5694 5692 5690 5688 5686 5684 5681 5679 5677 5674 5672 5669 5666 5664 5661 5659 5657 5655 5653 5652 5652 5652 5652 5652 5652 5653 5654 5654 5655 5656 5657 5657 5657 5658 5658 5658 5658 5658 5658 5659 5660 5661 5662 5664 5666 5668 5670 5671 5673 5675 5677 5679 5681 5682 5684 5685 5687 5688
5735 5732 5729 5726 5723 5720 5716 5713 5711 5708 5706 5704 5701 5699 5696 5694 5692 5690 5688 5686 5683 5681 5678 5676 5673 5671 5668 5665 5662 5659 5657 5655 5653 5651 5650 5648 5647 5647 5647 5647 5648 5649 5649 5650 5651 5652 5653 5654 5654 5655 5655 5656 5656 5656 5656 5656 5657 5658 5660 5661 5663 5665 5667 5668 5670 5672 5674 5676 5678 5679 5680 5682 5683 5684
5735 5732 5728 5725 5722 5718 5715 5712 5709 5707 5704 5702 5699 5697 5695 5692 5690 5688 5685 5683 5681 5678 5675 5672 5669 5667 5664 5661 5658 5656 5654 5651 5650 5648 5646 5645 5644 5642 5642 5642 5643 5644 5645 5646 5647 5648 5649 5651 5652 5652 5653 5653 5654 5654 5653 5654 5655 5656 5658 5659 5661 5663 5664 5666 5668 5669 5671 5673 5674 5676 5677 5678 5679 5681
5734 5731 5728 5724 5721 5717 5714 5711 5708 5705 5702 5700 5698 5695 5693 5691 5688 5686 5683 5681 5678 5675 5672 5669 5666 5663 5661 5658 5656 5653 5651 5649 5647 5645 5643 5641 5639 5638 5637 5637 5638 5640 5641 5642 5643 5645 5646 5648 5649 5650 5651 5651 5652 5651 5651 5652 5654 5655 5656 5658 5659 5660 5662 5663 5665 5666 5668 5670 5671 5673 5674 5675 5676 5677
5734 5731 5727 5724 5720 5717 5714 5710 5707 5704 5701 5699 5696 5694 5691 5689 5686 5684 5681 5679 5676 5673 5670 5667 5664 5661 5659 5656 5654 5651 5649 5646 5644 5642 5639 5637 5635 5633 5632 5632 5634 5636 5638 5639 5640 5642 5643 5644 5646 5647 5648 5649 5650 5650 5650 5652 5653 5654 5655 5656 5657 5658 5660 5661 5662 5664 5666 5667 5669 5670 5671 5672 5673 5674
5733 5730 5727 5723 5720 5717 5714 5710 5707 5703 5701 5698 5695 5692 5690 5687 5685 5682 5680 5677 5674 5672 5669 5666 5663 5660 5658 5655 5652 5650 5647 5644 5642 5639 5637 5635 5632 5630 5629 5629 5631 5633 5635 5637 5638 5639 5640 5641 5643 5645 5646 5647 5648 5648 5649 5651 5652 5653 5654 5655 5656 5657 5658 5659 5661 5662 5664 5665 5666 5667 5668 5669 5670 5671